Klamath Falls, OR

1:05 AM PST on February 13, 2016 (GMT -0800)
Klamath Falls International

Weather History for KLMT - June, 2012

Change the Weather History Date:

Friday, June 15, 2012

  Actual Average Record
Temperature  
Mean Temperature 61 °F 58 °F  
Max Temperature 79 °F 74 °F 94 °F (1961)
Min Temperature 43 °F 42 °F 30 °F (1952)
Degree Days  
Heating Degree Days 4 7  
Month to date heating degree days 168 137  
Since 1 June heating degree days 168 137  
Since 1 July heating degree days 6723 6893  
Cooling Degree Days 0 0  
Month to date cooling degree days 0 0  
Year to date cooling degree days 1 1  
Since 1 June cooling degree days 0 0  
Growing Degree Days 12 (Base 50)    
Moisture  
Dew Point 39 °F    
Average Humidity 46    
Maximum Humidity 69    
Minimum Humidity 21    
Precipitation  
Precipitation 0.00 in 0.05 in 0.64 in (1995)
Month to date precipitation 0.93 0.36  
Year to date precipitation 5.87 8.15  
Sea Level Pressure  
Sea Level Pressure 30.01 in    
Wind  
Wind Speed 9 mph (NNW)    
Max Wind Speed 18 mph    
Max Gust Speed 24 mph    
Visibility 10 miles    
Events      
T = Trace of Precipitation, MM = Missing Value Source: NWS Daily Summary

Daily Weather History Graph

Daily Weather History Graph

Search for Another Location

Airport or City:

Trip Planner

Search our weather history database for the weather conditions in past years. The results will help you decide how hot, cold, wet, or windy it might be!

Date:

Astronomy

Jun. 15, 2012 Rise Set
Actual Time 5:30 AM PDT 8:45 PM PDT
Civil Twilight 4:55 AM PDT 9:19 PM PDT
Nautical Twilight 4:11 AM PDT 10:04 PM PDT
Astronomical Twilight 3:16 AM PDT 10:58 PM PDT
Moon 2:49 AM PDT (6/15) 5:28 PM PDT (6/15)
Length of Visible Light 16h 24m
Length of Day
15h 14m
Waning Crescent, 13% of the Moon is Illuminated
Jun 15
Waning Crescent
Jun 19
New
Jun 26
First Quarter
Jul 3
Full
Jul 10
Last Quarter

Hourly Weather History & Observations

Time (PDT) Temp. Windchill Dew Point Humidity Pressure Visibility Wind Dir Wind Speed Gust Speed Precip Events Conditions
12:53 AM 55.0 °F - 30.0 °F 38% 29.94 in 10.0 mi NNW 8.1 mph - N/A   Clear
1:53 AM 50.0 °F - 35.1 °F 57% 29.96 in 10.0 mi North 5.8 mph - N/A   Clear
2:53 AM 50.0 °F - 33.1 °F 52% 29.97 in 10.0 mi NNW 8.1 mph - N/A   Clear
3:53 AM 46.0 °F 41.9 °F 35.1 °F 66% 29.98 in 10.0 mi NW 8.1 mph - N/A   Clear
4:53 AM 48.0 °F - 37.0 °F 66% 29.99 in 10.0 mi NW 6.9 mph - N/A   Clear
5:53 AM 46.0 °F - 35.1 °F 66% 30.01 in 10.0 mi Calm Calm - N/A   Clear
6:01 AM 46.4 °F 45.2 °F 35.6 °F 66% 30.10 in 7.0 mi NNE 3.5 mph - N/A   Clear
6:53 AM 52.0 °F - 39.0 °F 61% 30.03 in 7.0 mi North 6.9 mph - N/A   Clear
7:53 AM 57.0 °F - 39.0 °F 51% 30.04 in 10.0 mi North 6.9 mph - N/A   Clear
8:53 AM 60.1 °F - 39.9 °F 47% 30.03 in 10.0 mi NNW 8.1 mph - N/A   Clear
9:53 AM 63.0 °F - 41.0 °F 45% 30.03 in 10.0 mi NNW 12.7 mph 18.4 mph N/A   Partly Cloudy
10:53 AM 66.0 °F - 41.0 °F 40% 30.03 in 10.0 mi NW 8.1 mph - N/A   Partly Cloudy
11:53 AM 69.1 °F - 41.0 °F 36% 30.02 in 10.0 mi NW 15.0 mph - N/A   Partly Cloudy
12:53 PM 72.0 °F - 43.0 °F 35% 30.01 in 10.0 mi NNW 13.8 mph 20.7 mph N/A   Scattered Clouds
1:53 PM 75.0 °F - 41.0 °F 29% 30.01 in 10.0 mi NW 15.0 mph 24.2 mph N/A   Mostly Cloudy
2:53 PM 77.0 °F - 39.9 °F 26% 29.99 in 10.0 mi NW 15.0 mph - N/A   Mostly Cloudy
3:53 PM 77.0 °F - 37.9 °F 24% 30.00 in 10.0 mi NW 11.5 mph - N/A   Mostly Cloudy
4:53 PM 79.0 °F - 36.0 °F 21% 29.99 in 10.0 mi NW 15.0 mph 19.6 mph N/A   Scattered Clouds
5:53 PM 79.0 °F - 35.1 °F 20% 29.99 in 10.0 mi NW 15.0 mph - N/A   Scattered Clouds
6:53 PM 78.1 °F - 35.1 °F 21% 29.99 in 10.0 mi NW 11.5 mph - N/A   Partly Cloudy
7:53 PM 72.0 °F - 43.0 °F 35% 30.01 in 10.0 mi NE 5.8 mph - N/A   Partly Cloudy
8:53 PM 63.0 °F - 42.1 °F 46% 30.03 in 10.0 mi NNE 4.6 mph - N/A   Partly Cloudy
9:53 PM 60.1 °F - 48.0 °F 64% 30.06 in 10.0 mi Calm Calm - N/A   Partly Cloudy
10:53 PM 61.0 °F - 48.0 °F 62% 30.06 in 10.0 mi NNW 9.2 mph - N/A   Clear
11:53 PM 61.0 °F - 50.0 °F 67% 30.07 in 10.0 mi North 5.8 mph - N/A   Clear